San Jose, Costa Rica

5:33 PM CST on September 30, 2016 (GMT -0600)
Juan Santamaria International

Weather History for MROC - June, 2013

Change the Weather History Date:

Friday, June 14, 2013

  Actual Average Record
Temperature  
Mean Temperature 74 °F -  
Max Temperature 84 °F 80 °F 86 °F (1998)
Min Temperature 64 °F 65 °F 62 °F (2000)
Cooling Degree Days 9    
Growing Degree Days 24 (Base 50)    
Moisture  
Dew Point 66 °F    
Average Humidity 81    
Maximum Humidity 94    
Minimum Humidity 51    
Precipitation  
Precipitation 0.47 in - - ()
Sea Level Pressure  
Sea Level Pressure 29.94 in    
Wind  
Wind Speed 4 mph ()    
Max Wind Speed 14 mph    
Max Gust Speed -    
Visibility 6.6 miles    
Events Fog , Rain , Thunderstorm    
Averages and records for this station are not official NWS values.
T = Trace of Precipitation, MM = Missing Value Source: Averaged Metar Reports

Daily Weather History Graph

Daily Weather History Graph

Search for Another Location

Airport or City:

Trip Planner

Search our weather history database for the weather conditions in past years. The results will help you decide how hot, cold, wet, or windy it might be!

Date:

Astronomy

Jun. 14, 2013 Rise Set
Actual Time 5:16 AM CST 5:58 PM CST
Civil Twilight 4:53 AM CST 6:21 PM CST
Nautical Twilight 4:25 AM CST 6:48 PM CST
Astronomical Twilight 3:58 AM CST 7:15 PM CST
Moon 10:00 AM CST (6/14) 10:30 PM CST (6/14)
Length of Visible Light 13h 28m
Length of Day
12h 42m
Waxing Crescent, 31% of the Moon is Illuminated
Jun 14
Waxing Crescent
Jun 16
First Quarter
Jun 23
Full
Jun 29
Last Quarter
Jul 8
New

Hourly Weather History & Observations

Time (CST) Temp. Heat Index Dew Point Humidity Pressure Visibility Wind Dir Wind Speed Gust Speed Precip Events Conditions
12:00 AM 68 °F - 66 °F 90% 29.85 in 12 mi NW 3.5 mph - -   Scattered Clouds
12:00 AM 68.0 °F - 66.2 °F 94% 30.00 in 6.2 mi NW 3.5 mph - N/A   Scattered Clouds
1:00 AM 68.0 °F - 66.2 °F 94% 29.98 in 6.2 mi East 2.3 mph - N/A   Scattered Clouds
2:00 AM 68.0 °F - 64.4 °F 88% - 6.2 mi East 3.5 mph - N/A   Mostly Cloudy
3:00 AM 67 °F - 65 °F 89% 29.83 in 12 mi East 3.5 mph - -   Mostly Cloudy
3:00 AM 68.0 °F - 64.4 °F 88% 29.96 in - East 3.5 mph - N/A   Clear
4:00 AM 66.2 °F - 62.6 °F 88% 29.94 in - NNE 4.6 mph - N/A   Clear
5:00 AM 66.2 °F - 60.8 °F 83% 29.95 in - ENE 5.8 mph - N/A   Clear
6:00 AM 67 °F - 61 °F 77% 29.82 in 12 mi ENE 5.8 mph - -   Clear
6:00 AM 68.0 °F - 60.8 °F 78% 29.96 in - ENE 5.8 mph - N/A   Clear
7:00 AM 73.4 °F - 62.6 °F 69% 29.98 in - East 3.5 mph - N/A   Clear
8:00 AM 78.8 °F - 64.4 °F 61% 2.99 in - South 2.3 mph - N/A   Clear
8:30 AM - - - N/A% 30.00 in - WSW 2.3 mph - N/A   Clear
9:00 AM 79 °F - 65 °F 54% 29.81 in 12 mi WSW 3.5 mph - -   Scattered Clouds
9:00 AM 78.8 °F - 64.4 °F 61% 30.00 in 6.2 mi WSW 3.5 mph - N/A   Scattered Clouds
10:00 AM 82.4 °F 83.4 °F 62.6 °F 51% 30.00 in 6.2 mi SE 8.1 mph - N/A   Scattered Clouds
11:00 AM 78.8 °F - 68.0 °F 69% 29.99 in 6.2 mi SW 8.1 mph - N/A   Scattered Clouds
12:00 PM 81 °F - 67 °F 53% 29.81 in 12 mi WSW 10.4 mph - -   Partly Cloudy
12:00 PM 80.6 °F 82.7 °F 66.2 °F 61% 29.98 in 6.2 mi WSW 10.4 mph - N/A   Scattered Clouds
1:00 PM 80.6 °F 83.9 °F 69.8 °F 70% 29.95 in 6.2 mi WSW 9.2 mph - N/A   Scattered Clouds
2:00 PM 80.6 °F 83.9 °F 69.8 °F 70% 29.93 in 6.2 mi WSW 11.5 mph - N/A   Scattered Clouds
2:48 PM 75.2 °F - 69.8 °F 83% 29.92 in 6.2 mi SW 11.5 mph - N/A Thunderstorm Mostly Cloudy
3:00 PM 74 °F - 69 °F 78% 29.78 in 6 mi WSW 13.8 mph - - Rain , Thunderstorm Thunderstorms and Rain
3:00 PM 73.4 °F - 68.0 °F 83% 29.92 in 6.2 mi WSW 13.8 mph - N/A Rain , Thunderstorm Thunderstorms and Rain
3:35 PM 69.8 °F - 68.0 °F 94% 29.94 in 0.9 mi SSW 2.3 mph - N/A Rain , Thunderstorm Heavy Thunderstorms and Rain
4:00 PM 69.8 °F - 68.0 °F 94% 29.95 in 2.2 mi WSW 4.6 mph - N/A Rain , Thunderstorm Light Thunderstorms and Rain
4:30 PM 71.6 °F - 69.8 °F 94% 29.95 in 4.3 mi NW 2.3 mph - N/A Rain Light Rain
5:00 PM 71.6 °F - 69.8 °F 94% 29.97 in 5.0 mi North 2.3 mph - N/A Rain Light Rain
6:00 PM 70 °F - 69 °F 94% 29.80 in 5 mi WSW 3.5 mph - - Rain Light Rain
6:00 PM 69.8 °F - 68.0 °F 94% 29.97 in 5.0 mi WSW 3.5 mph - N/A Fog , Rain Light Rain
7:00 PM 69.8 °F - 68.0 °F 94% 30.00 in 5.0 mi West 5.8 mph - N/A Fog Light Drizzle
8:00 PM 69.8 °F - 68.0 °F 94% 30.03 in 6.2 mi West 2.3 mph - N/A Rain Light Rain
9:00 PM 69.8 °F - 68.0 °F 94% 30.04 in 5.0 mi SE 2.3 mph - N/A Fog Fog
10:00 PM 69.8 °F - 66.2 °F 88% 30.03 in - ENE 5.8 mph - N/A   Clear
11:00 PM 69.8 °F - 64.4 °F 83% 30.01 in - West 3.5 mph - N/A   Clear